GW2898 Weather Reports


time (UTC)temp
C
wind
direction
speed
KPH
gust
KPH
rain 1hr
cm
rain 24hr
cm
rain mn
cm
humidity
%
barometer
mb
20260502130704 16 61 1.6 3.2 0.00 0.00 0.00 51 1015.3
20260502130202 16 115 0.0 3.2 0.00 0.00 0.00 53 1015.2
20260502123647 15 70 3.2 4.8 0.00 0.00 0.00 54 1015.1
20260502123144 15 151 1.6 3.2 0.00 0.00 0.00 54 1015.0
20260502122640 15 86 1.6 3.2 0.00 0.00 0.00 53 1014.8
20260502122137 15 46 0.0 3.2 0.00 0.00 0.00 54 1014.8
20260502121636 15 62 4.8 4.8 0.00 0.00 0.00 53 1014.8
20260502121133 15 164 0.0 4.8 0.00 0.00 0.00 53 1014.7
20260502120629 15 175 0.0 4.8 0.00 0.00 0.00 52 1014.6
20260502120126 15 102 3.2 4.8 0.00 0.00 0.00 52 1014.8
20260502115624 15 82 1.6 4.8 0.00 0.00 0.00 51 1014.7
20260502115119 15 175 0.0 3.2 0.00 0.00 0.00 52 1014.5
20260502114616 15 22 4.8 6.4 0.00 0.00 0.00 52 1014.4
20260502114113 15 101 0.0 4.8 0.00 0.00 0.00 50 1014.5
20260502113610 15 91 1.6 3.2 0.00 0.00 0.00 49 1014.5
20260502113109 15 88 3.2 4.8 0.00 0.00 0.00 50 1014.4
20260502112606 15 146 0.0 3.2 0.00 0.00 0.00 48 1014.5
20260502112104 15 35 3.2 3.2 0.00 0.00 0.00 49 1014.3
20260502111601 15 89 1.6 3.2 0.00 0.00 0.00 48 1014.4
20260502111058 16 81 0.0 3.2 0.00 0.00 0.00 46 1014.5
20260502110556 16 89 1.6 4.8 0.00 0.00 0.00 45 1014.4
20260502110053 16 142 0.0 3.2 0.00 0.00 0.00 46 1014.3
20260502105550 16 53 0.0 1.6 0.00 0.00 0.00 45 1014.5
20260502105048 16 139 1.6 3.2 0.00 0.00 0.00 44 1014.3
20260502104545 17 80 1.6 3.2 0.00 0.00 0.00 43 1014.3
20260502104042 17 36 1.6 3.2 0.00 0.00 0.00 42 1014.3
20260502103540 17 16 1.6 3.2 0.00 0.00 0.00 43 1014.4
20260502103038 17 37 1.6 4.8 0.00 0.00 0.00 43 1014.3
20260502102534 18 140 1.6 3.2 0.00 0.00 0.00 40 1014.0
20260502102031 18 88 1.6 4.8 0.00 0.00 0.00 38 1014.3
20260502101529 17 188 3.2 3.2 0.00 0.00 0.00 42 1014.2
20260502101027 17 61 1.6 4.8 0.00 0.00 0.00 43 1014.1
20260502100525 17 72 0.0 3.2 0.00 0.00 0.00 42 1014.3
20260502091500 18 46 1.6 3.2 0.00 0.00 0.00 40 1013.9
20260502090957 18 42 1.6 3.2 0.00 0.00 0.00 39 1014.0
20260502090454 18 133 0.0 3.2 0.00 0.00 0.00 38 1013.8
20260502071349 18 141 0.0 3.2 0.00 0.00 0.00 34 1013.5
20260502070847 18 139 0.0 3.2 0.00 0.00 0.00 35 1013.4
20260502070344 18 37 0.0 3.2 0.00 0.00 0.00 35 1013.3
20260502065843 18 110 0.0 3.2 0.00 0.00 0.00 35 1013.5
20260502065340 18 89 0.0 3.2 0.00 0.00 0.00 35 1013.5
20260502064838 18 93 1.6 3.2 0.00 0.00 0.00 37 1013.4
20260502064336 18 55 0.0 3.2 0.00 0.00 0.00 37 1013.5
20260502063833 18 87 1.6 3.2 0.00 0.00 0.00 39 1013.4
20260502063331 19 63 0.0 3.2 0.00 0.00 0.00 38 1013.4
20260502062828 19 135 0.0 3.2 0.00 0.00 0.00 36 1013.5
20260502062325 18 104 0.0 3.2 0.00 0.00 0.00 40 1013.3
20260502061824 19 53 0.0 1.6 0.00 0.00 0.00 39 1013.6
20260502061321 19 145 0.0 1.6 0.00 0.00 0.00 38 1013.3
20260502060817 20 49 0.0 3.2 0.00 0.00 0.00 37 1013.4
20260502060312 19 39 0.0 3.2 0.00 0.00 0.00 38 1013.0
20260502055810 20 39 0.0 3.2 0.00 0.00 0.00 38 1013.1
20260502055308 20 37 0.0 3.2 0.00 0.00 0.00 35 1013.1
20260502054807 20 169 0.0 3.2 0.00 0.00 0.00 36 1013.3
20260502054304 19 171 0.0 3.2 0.00 0.00 0.00 37 1013.3
20260502053801 19 129 0.0 0.0 0.00 0.00 0.00 38 1013.2
20260502053259 20 146 0.0 3.2 0.00 0.00 0.00 36 1013.1
20260502052756 20 129 0.0 1.6 0.00 0.00 0.00 37 1013.0
20260502052254 20 118 0.0 3.2 0.00 0.00 0.00 36 1012.7
20260502051752 20 76 1.6 3.2 0.00 0.00 0.00 37 1013.0
20260502051251 20 101 3.2 3.2 0.00 0.00 0.00 37 1012.8
20260502050746 19 142 0.0 3.2 0.00 0.00 0.00 38 1012.7
20260502050242 20 142 0.0 3.2 0.00 0.00 0.00 38 1012.8
20260502045740 20 108 0.0 3.2 0.00 0.00 0.00 37 1012.7
20260502045236 20 102 1.6 3.2 0.00 0.00 0.00 37 1013.0
20260502044733 20 67 0.0 3.2 0.00 0.00 0.00 37 1012.7
20260502044229 20 119 0.0 1.6 0.00 0.00 0.00 37 1013.0
20260502043727 20 145 0.0 1.6 0.00 0.00 0.00 35 1012.7
20260502043225 20 120 1.6 3.2 0.00 0.00 0.00 36 1012.7
20260502042724 20 53 1.6 3.2 0.00 0.00 0.00 36 1012.7
20260502042221 20 147 0.0 1.6 0.00 0.00 0.00 36 1012.7
20260502041719 20 141 0.0 1.6 0.00 0.00 0.00 37 1012.7
20260502041216 20 37 0.0 1.6 0.00 0.00 0.00 37 1012.6
20260502040713 21 134 0.0 1.6 0.00 0.00 0.00 35 1012.6
20260502040210 21 117 0.0 1.6 0.00 0.00 0.00 34 1012.1
20260502035706 21 15 0.0 1.6 0.00 0.00 0.00 34 1012.4
20260502035203 21 88 0.0 1.6 0.00 0.00 0.00 33 1012.2
20260502034700 22 44 0.0 1.6 0.00 0.00 0.00 32 1012.2
20260502034159 22 130 0.0 1.6 0.00 0.00 0.00 31 1012.0
20260502033656 22 37 0.0 1.6 0.00 0.00 0.00 30 1012.3
20260502033154 22 89 0.0 1.6 0.00 0.00 0.00 31 1012.0
20260502032650 23 110 0.0 0.0 0.00 0.00 0.00 29 1011.9
20260502032146 23 104 0.0 1.6 0.00 0.00 0.00 29 1011.7
20260502031644 23 38 0.0 1.6 0.00 0.00 0.00 29 1011.8
20260502031142 23 147 0.0 0.0 0.00 0.00 0.00 28 1011.7
20260502030641 23 135 0.0 0.0 0.00 0.00 0.00 27 1011.8
20260502030138 23 135 0.0 0.0 0.00 0.00 0.00 27 1011.7
20260502025635 23 104 0.0 0.0 0.00 0.00 0.00 26 1011.6
20260502025133 24 104 0.0 0.0 0.00 0.00 0.00 26 1011.4
20260502024631 24 104 0.0 1.6 0.00 0.00 0.00 25 1011.4
20260502024128 25 75 0.0 0.0 0.00 0.00 0.00 24 1011.4
20260502023626 25 124 0.0 0.0 0.00 0.00 0.00 23 1011.3
20260502023123 26 336 0.0 0.0 0.00 0.00 0.00 22 1011.3
20260502022620 27 336 0.0 0.0 0.00 0.00 0.00 21 1011.3
20260502022117 28 336 0.0 1.6 0.00 0.00 0.00 20 1011.2
20260502021615 28 23 1.6 3.2 0.00 0.00 0.00 20 1011.1
20260502021111 28 296 1.6 4.8 0.00 0.00 0.00 19 1011.2
20260502020609 28 242 0.0 4.8 0.00 0.00 0.00 19 1011.2
20260502020106 28 247 6.4 8.0 0.00 0.00 0.00 19 1011.2
20260502015604 28 306 0.0 4.8 0.00 0.00 0.00 20 1011.3
20260502015100 28 211 1.6 4.8 0.00 0.00 0.00 20 1011.3
20260502014557 29 330 0.0 3.2 0.00 0.00 0.00 20 1011.1
20260502014054 29 340 1.6 4.8 0.00 0.00 0.00 20 1011.1
20260502013549 29 349 3.2 8.0 0.00 0.00 0.00 19 1011.0
20260502013046 30 208 3.2 4.8 0.00 0.00 0.00 20 1011.0
20260502012543 30 336 11.3 11.3 0.00 0.00 0.00 19 1011.2
20260502012041 30 5 4.8 9.7 0.00 0.00 0.00 18 1011.1
20260502011537 30 248 3.2 6.4 0.00 0.00 0.00 20 1010.9
20260502011033 30 296 1.6 8.0 0.00 0.00 0.00 20 1011.0
20260502010531 30 339 4.8 11.3 0.00 0.00 0.00 19 1010.9
20260502010027 31 333 6.4 9.7 0.00 0.00 0.00 18 1010.9
20260502005525 31 321 6.4 14.5 0.00 0.00 0.00 19 1011.0
20260502005023 31 285 1.6 14.5 0.00 0.00 0.00 20 1011.0
20260502004518 31 336 8.0 11.3 0.00 0.00 0.00 19 1011.0
20260502004015 31 325 9.7 16.1 0.00 0.00 0.00 19 1010.8
20260502003513 31 332 6.4 14.5 0.00 0.00 0.00 20 1010.8
20260502003010 31 345 3.2 14.5 0.00 0.00 0.00 20 1010.8
20260502002506 31 312 6.4 16.1 0.00 0.00 0.00 20 1011.0
20260502002004 31 304 4.8 12.9 0.00 0.00 0.00 20 1011.1
20260502001501 31 273 4.8 12.9 0.00 0.00 0.00 20 1011.0
20260502000958 31 300 6.4 12.9 0.00 0.00 0.00 19 1011.1
20260502000457 31 327 8.0 14.5 0.00 0.00 0.00 20 1011.1
20260501235953 31 317 4.8 16.1 0.00 0.00 0.00 20 1011.2
20260501235448 31 299 8.0 11.3 0.00 0.00 0.00 21 1010.9
20260501234944 31 346 4.8 12.9 0.00 0.00 0.00 20 1011.1
20260501234440 31 258 6.4 9.7 0.00 0.00 0.00 21 1011.1
20260501233940 31 247 4.8 12.9 0.00 0.00 0.00 21 1011.1
20260501233437 31 249 11.3 16.1 0.00 0.00 0.00 21 1011.3
20260501232932 32 323 4.8 14.5 0.00 0.00 0.00 21 1011.3
20260501232430 31 337 3.2 8.0 0.00 0.00 0.00 22 1011.3
20260501231927 31 18 1.6 4.8 0.00 0.00 0.00 19 1011.3
20260501231425 31 333 6.4 12.9 0.00 0.00 0.00 19 1011.1
20260501230923 31 311 14.5 20.9 0.00 0.00 0.00 22 1011.4
20260501230421 31 250 8.0 14.5 0.00 0.00 0.00 22 1011.4
20260501225918 31 328 6.4 11.3 0.00 0.00 0.00 22 1011.3
20260501225416 31 327 6.4 19.3 0.00 0.00 0.00 22 1011.5
20260501224911 31 331 4.8 12.9 0.00 0.00 0.00 21 1011.3
20260501224409 31 325 11.3 17.7 0.00 0.00 0.00 22 1011.3
20260501223906 31 328 6.4 12.9 0.00 0.00 0.00 23 1011.5
20260501223402 31 281 1.6 17.7 0.00 0.00 0.00 22 1011.6
20260501222858 31 255 4.8 9.7 0.00 0.00 0.00 24 1011.7
20260501222355 31 352 6.4 14.5 0.00 0.00 0.00 23 1011.7
20260501221852 31 347 4.8 8.0 0.00 0.00 0.00 25 1011.6
20260501221349 31 258 12.9 19.3 0.00 0.00 0.00 23 1011.9
20260501220847 31 220 1.6 4.8 0.00 0.00 0.00 24 1011.8
20260501220344 31 300 3.2 8.0 0.00 0.00 0.00 23 1012.0
20260501215840 32 293 3.2 9.7 0.00 0.00 0.00 23 1012.1
20260501215337 31 59 4.8 9.7 0.00 0.00 0.00 23 1011.9
20260501214832 31 109 3.2 4.8 0.00 0.00 0.00 23 1012.2
20260501214328 30 83 4.8 9.7 0.00 0.00 0.00 23 1012.0
20260501213824 30 317 4.8 12.9 0.00 0.00 0.00 25 1012.6
20260501213321 30 269 0.0 6.4 0.00 0.00 0.00 22 1012.3
20260501212816 30 76 1.6 9.7 0.00 0.00 0.00 23 1012.6
20260501212313 30 297 6.4 8.0 0.00 0.00 0.00 23 1012.4
20260501211811 30 159 3.2 9.7 0.00 0.00 0.00 22 1012.4
20260501211308 31 207 6.4 9.7 0.00 0.00 0.00 23 1012.6
20260501210804 30 104 0.0 8.0 0.00 0.00 0.00 22 1012.8
20260501210301 30 265 0.0 9.7 0.00 0.00 0.00 23 1013.1
20260501205757 30 196 4.8 12.9 0.00 0.00 0.00 25 1012.8
20260501205254 30 78 1.6 6.4 0.00 0.00 0.00 26 1013.0
20260501204751 30 227 3.2 4.8 0.00 0.00 0.00 26 1013.2
20260501204248 28 94 3.2 11.3 0.00 0.00 0.00 25 1013.1
20260501203744 29 157 4.8 9.7 0.00 0.00 0.00 25 1013.0
20260501203242 30 209 4.8 11.3 0.00 0.00 0.00 27 1013.3
20260501202739 29 222 4.8 12.9 0.00 0.00 0.00 26 1013.4
20260501202235 29 215 3.2 8.0 0.00 0.00 0.00 26 1013.4
20260501201732 29 221 6.4 11.3 0.00 0.00 0.00 27 1013.4
20260501201229 29 109 3.2 6.4 0.00 0.00 0.00 26 1013.5
20260501200726 28 102 9.7 11.3 0.00 0.00 0.00 27 1013.3
20260501200223 30 89 4.8 9.7 0.00 0.00 0.00 25 1013.4
20260501195720 29 54 0.0 4.8 0.00 0.00 0.00 29 1013.4
20260501195216 28 173 0.0 8.0 0.00 0.00 0.00 25 1013.4
20260501194713 28 307 1.6 12.9 0.00 0.00 0.00 27 1013.8
20260501194208 27 211 3.2 14.5 0.00 0.00 0.00 26 1013.9
20260501193705 28 206 4.8 12.9 0.00 0.00 0.00 28 1013.8
20260501193204 28 243 9.7 11.3 0.00 0.00 0.00 26 1013.9
20260501192700 28 51 3.2 8.0 0.00 0.00 0.00 25 1013.8
20260501192158 28 104 4.8 9.7 0.00 0.00 0.00 27 1013.9
20260501191655 27 83 8.0 14.5 0.00 0.00 0.00 27 1014.1
20260501191152 27 75 6.4 17.7 0.00 0.00 0.00 27 1014.2
20260501190649 28 5 3.2 8.0 0.00 0.00 0.00 26 1014.1
20260501190144 27 264 3.2 8.0 0.00 0.00 0.00 28 1014.4
20260501185640 27 330 6.4 12.9 0.00 0.00 0.00 28 1014.4
20260501185136 27 322 4.8 14.5 0.00 0.00 0.00 29 1014.1
20260501184632 28 308 1.6 8.0 0.00 0.00 0.00 27 1014.5
20260501184127 28 297 4.8 9.7 0.00 0.00 0.00 28 1014.7
20260501183624 27 242 0.0 4.8 0.00 0.00 0.00 27 1014.6
20260501183120 27 313 4.8 9.7 0.00 0.00 0.00 28 1014.8
20260501182617 27 318 3.2 6.4 0.00 0.00 0.00 31 1014.9
20260501182114 26 229 1.6 6.4 0.00 0.00 0.00 29 1014.8
20260501181611 27 234 6.4 12.9 0.00 0.00 0.00 31 1015.0
20260501181108 27 220 4.8 6.4 0.00 0.00 0.00 30 1015.2
20260501180606 27 253 3.2 6.4 0.00 0.00 0.00 30 1015.3
20260501175559 27 194 8.0 11.3 0.00 0.00 0.00 31 1015.2
20260501175056 26 296 3.2 11.3 0.00 0.00 0.00 29 1015.2
20260501174552 27 153 3.2 16.1 0.00 0.00 0.00 32 1015.3
20260501174050 26 94 1.6 11.3 0.00 0.00 0.00 30 1015.2
20260501173547 26 88 8.0 14.5 0.00 0.00 0.00 32 1015.2
20260501173044 26 269 0.0 8.0 0.00 0.00 0.00 32 1015.3
20260501172539 26 264 3.2 11.3 0.00 0.00 0.00 31 1015.3
20260501172035 26 252 4.8 6.4 0.00 0.00 0.00 31 1015.3
20260501171531 26 173 0.0 3.2 0.00 0.00 0.00 32 1015.4
20260501171028 26 211 0.0 9.7 0.00 0.00 0.00 32 1015.5
20260501170525 26 312 4.8 6.4 0.00 0.00 0.00 32 1015.2
20260501170022 25 257 3.2 9.7 0.00 0.00 0.00 33 1015.4
20260501165520 26 59 4.8 6.4 0.00 0.00 0.00 33 1015.5
20260501165017 25 335 3.2 9.7 0.00 0.00 0.00 37 1015.6
20260501164515 25 302 3.2 4.8 0.00 0.00 0.00 34 1015.3
20260501164011 25 281 1.6 8.0 0.00 0.00 0.00 36 1015.2
20260501163508 25 307 6.4 9.7 0.00 0.00 0.00 34 1015.5
20260501163005 24 103 1.6 4.8 0.00 0.00 0.00 37 1015.5
20260501162501 24 225 4.8 6.4 0.00 0.00 0.00 37 1015.3
20260501161958 25 212 4.8 4.8 0.00 0.00 0.00 36 1015.5
20260501161455 24 111 0.0 4.8 0.00 0.00 0.00 36 1015.4
20260501160952 23 160 1.6 6.4 0.00 0.00 0.00 39 1015.5
20260501160448 24 265 4.8 8.0 0.00 0.00 0.00 36 1015.4
20260501155945 23 291 1.6 3.2 0.00 0.00 0.00 39 1015.5
20260501155442 23 191 4.8 8.0 0.00 0.00 0.00 40 1015.3
20260501154939 23 255 0.0 4.8 0.00 0.00 0.00 41 1015.3
20260501154436 23 187 4.8 9.7 0.00 0.00 0.00 40 1015.2
20260501153933 23 230 3.2 8.0 0.00 0.00 0.00 39 1015.3
20260501153431 23 227 1.6 3.2 0.00 0.00 0.00 39 1015.2
20260501152926 23 146 6.4 9.7 0.00 0.00 0.00 39 1015.3
20260501152424 23 198 3.2 6.4 0.00 0.00 0.00 40 1015.2
20260501151921 22 130 0.0 6.4 0.00 0.00 0.00 42 1015.0
20260501151418 22 158 1.6 6.4 0.00 0.00 0.00 43 1015.0
20260501150914 22 143 8.0 11.3 0.00 0.00 0.00 41 1015.2
20260501150410 22 135 6.4 9.7 0.00 0.00 0.00 42 1014.9
20260501145907 22 161 3.2 8.0 0.00 0.00 0.00 42 1014.7
20260501145404 22 137 1.6 4.8 0.00 0.00 0.00 42 1014.8
20260501144901 22 178 3.2 6.4 0.00 0.00 0.00 43 1014.6
20260501144356 22 213 1.6 4.8 0.00 0.00 0.00 43 1014.6
20260501143853 22 136 0.0 4.8 0.00 0.00 0.00 44 1014.7
20260501143349 22 106 0.0 4.8 0.00 0.00 0.00 42 1014.5
20260501142847 22 145 4.8 4.8 0.00 0.00 0.00 43 1014.5
20260501142343 23 47 3.2 6.4 0.00 0.00 0.00 42 1014.5
20260501141839 23 106 0.0 3.2 0.00 0.00 0.00 41 1014.4
20260501141335 22 62 0.0 4.8 0.00 0.00 0.00 43 1014.4
20260501140834 22 48 1.6 3.2 0.00 0.00 0.00 43 1014.3
20260501140329 21 164 0.0 1.6 0.00 0.00 0.00 48 1014.3
20260501135826 21 59 3.2 4.8 0.00 0.00 0.00 45 1014.3
20260501135324 22 93 1.6 3.2 0.00 0.00 0.00 44 1014.4
20260501134821 22 101 3.2 3.2 0.00 0.00 0.00 43 1014.0
20260501134317 21 37 0.0 1.6 0.00 0.00 0.00 44 1014.0
20260501133813 21 65 0.0 3.2 0.00 0.00 0.00 45 1014.0
20260501133311 20 144 0.0 3.2 0.00 0.00 0.00 48 1013.7